Home   Weather   Ottawa   Past weeks

Flag for Canada Past Weather in Ottawa, Ontario, Canada — Yesterday and Last 2 Weeks

Now
25 °F

Light snow. Ice fog.


Feels Like: 25 °F
Forecast: 24 / 34 °F
Wind: 2 mph from East

Location: Ottawa Int'L. Ont.

Current Time: Mar 24, 2017 at 9:55:24 am

Latest Report: Mar 24, 2017 at 9:00 am


Visibility: 1 mi

Pressure: 30.20 "Hg

Humidity: 93%

Dew Point: 23 °F

Location of OttawaLocation

Past Weather in Ottawa — Graph

°F

Ottawa Temperature Yesterday

Maximum temperature yesterday: 36 °F (at 6:00 pm)
Minimum temperature yesterday: 9 °F (at 3:00 am)
Average temperature yesterday: 22 °F

High & Low Weather Summary for the Past Weeks

 TemperatureHumidityPressure
High43 °F (Mar 21, 4:00 pm)100% (Mar 21, 9:00 am)30.58 "Hg (Mar 21, 9:00 am)
Low-4 °F (Mar 11, 6:00 am)25% (Mar 23, 5:00 pm)29.51 "Hg (Mar 15, 7:00 am)
Average19 °F59%30.14 "Hg
* Reported Mar 9 7:00 am — Mar 24 8:09 am, Ottawa, Weather by CustomWeather, © 2017

Note: Actual official high and low records may vary slightly from our data, if they occured in-between our weather recording intervals... More about our weather records

Advertising

Ottawa Weather History for the Previous 24 Hours

Scroll right to see more
 ConditionsComfort  
Time TempWeatherWind HumidityBarometerVisibility
8:09 am
Fri, Mar 24
25 °FLight snow. Low clouds.7 mph93%30.20 "Hg4 mi
7:38 am25 °FOvercast.8 mph93%30.21 "Hg8 mi
7:00 am25 °FCold.9 mph93%30.20 "Hg1 mi
6:38 am25 °FLight snow. Ice fog.5 mph93%30.24 "Hg1 mi
6:17 am25 °FSnow. Ice fog.No wind93%30.26 "Hg1 mi
6:06 am25 °FLight snow. Ice fog.5 mph86%30.27 "Hg1 mi
5:42 am28 °FLight snow. Ice fog.8 mph59%30.27 "Hg1 mi
5:28 am28 °FLight snow. Overcast.3 mph55%30.27 "Hg10 mi
5:00 am28 °FOvercast.5 mph51%30.27 "Hg15 mi
4:00 am28 °FOvercast.6 mph55%30.29 "Hg15 mi
3:00 am28 °FOvercast.3 mph51%30.34 "Hg15 mi
2:00 am28 °FOvercast.7 mph47%30.34 "Hg15 mi
1:00 am28 °FOvercast.8 mph55%30.34 "Hg15 mi
12:00 am28 °FMostly cloudy.12 mph51%30.38 "Hg15 mi
11:00 pm
Thu, Mar 23
28 °FOvercast.10 mph55%30.42 "Hg15 mi
10:00 pm30 °FMostly cloudy.12 mph55%30.44 "Hg15 mi
9:00 pm30 °FOvercast.12 mph59%30.46 "Hg15 mi
8:00 pm32 °FPassing clouds.10 mph55%30.46 "Hg15 mi
7:00 pm32 °FPartly sunny.6 mph40%30.46 "Hg15 mi
6:00 pm36 °FScattered clouds.No wind25%30.43 "Hg15 mi
5:00 pm34 °FPassing clouds.No wind25%30.47 "Hg15 mi
4:00 pm34 °FPassing clouds.7 mph27%30.49 "Hg15 mi
3:00 pm32 °FPassing clouds.15 mph34%30.51 "Hg15 mi
2:00 pm30 °FPassing clouds.16 mph34%30.53 "Hg15 mi
1:00 pm30 °FSunny.10 mph37%30.55 "Hg15 mi
12:00 pm27 °FPassing clouds.6 mph43%30.56 "Hg15 mi
11:00 am23 °FPassing clouds.8 mph50%30.57 "Hg15 mi
10:00 am19 °FPassing clouds.13 mph53%30.58 "Hg15 mi
9:00 am18 °FPassing clouds.7 mph49%30.57 "Hg15 mi
Weather by CustomWeather, © 2017

See weather overviewHow to use our weather pages